FENGYUN 1C DEB, 33693

Orbit data source: Space-Track

FENGYUN 1C DEB, 33693 is space debris in SSO originally from a launch on Mon, 10 May 1999 UTC launched from the Taiyaun Space Center, China (TSC). Fengyun 1C debris stems from the Chinese weather satellite Fengyun-1C, which was intentionally destroyed by a Chinese anti-satellite missile in 2007. This event dramatically increased the amount of space debris, with thousands of trackable fragments posing hazards to satellites and human spaceflight. The Fengyun 1C debris cloud has become a focal point in discussions about space sustainability and the need for international regulations to prevent the creation of new debris.

Loading next visibility...
Identifier
33693, 1999-025DGE
Orbit
SSO
Country
Flag of CNCN / PRC
Related business
Manufacturer
Unknown
Mission
Spacecraft
Bus & Motor
Unknown
Mass
Unknown
Launch date (UTC)
1999-05-10 (27 years ago)
Launch vehicle
Unknown
Launch site
Taiyaun Space Center, China (TSC)
Object type
Payload
Rocket body
Debris
Shape & HBR
Unknown shape, 0.1 m
Radar Cross Section
Small (<0.1 m²)

Expand to show TLE details & history
Last TLE update: 5 days ago

TLE from 5 days ago
0 FENGYUN 1C DEB
1 33693U 99025DGE 26249.93700455  .00000617  00000-0  60827-3 0  9995
2 33693  99.2360  62.5586 0222449  17.1275 343.7228 13.72008098919087
Epoch: 2026-09-06T22:29Z
TLE epoch observation values (Epoch: 2026-09-06T22:29:17.193Z)
Latitude
-0.00006°
Longitude
99.21201°
Altitude
838.085 km
Speed
7.513 km/s
True Right ascension
04h 10m 14s
True Declination
0° 00' 00"
Sunlit
Object was in daylight at epoch
Visualization orbit readout
Latitude
Unknown
Longitude
Unknown
Altitude
Unknown
Speed
Unknown
Apparent Right ascension
Unknown
Apparent Declination
Unknown
Sunlit
N/A
Visualization observer readout
Local Sidereal Time
02:12:51
Azimuth
Unknown
Elevation
Unknown
Doppler factor
Unknown
Orbital elements
Apogee altitude
1,153.512 km
Perigee altitude
825.722 km
Semi-major axis
7,367.754 km
Eccentricity
0.02224
Inclination
99.236°
RAAN
62.5586°
Arg. of periapsis
17.1275°
True anomaly
342.98878°
Mean anomaly
343.7228°
Eccentric anomaly
343.35778°
Mean motion
3.43195 °/min
Orbital period
104.9 mins
BSTAR
0.00060827
Loading maneuver chart data...
Computing Atmospheric mass density...

Documentation

Showing up to 5 results
|